This is the latest recevied weather packets stored in our database for station/object N8BAP. If no packets are shown the sender has not sent any weather packets the latest 10 day(s).
| Time | Temp. | Humidity | Pressure | Rain* | Wind** | Luminosity | Snow |
|---|---|---|---|---|---|---|---|
| 1778203141 | 8.89° C | 71% | 1019.3 hPa | 0 mm | - | 0 W/m² | - |
| 1778202839 | 8.89° C | 62% | 1019.2 hPa | 0 mm | - | 0 W/m² | - |
| 1778202536 | 8.89° C | 62% | 1019.4 hPa | 0 mm | - | 0 W/m² | - |
| 1778202233 | 8.89° C | 63% | 1019.6 hPa | 0 mm | - | 0 W/m² | - |
| 1778201930 | 10° C | 62% | 1019.4 hPa | 0 mm | - | 0 W/m² | - |
| 1778201626 | 10.56° C | 62% | 1019.2 hPa | 0 mm | - | 0 W/m² | - |
| 1778201323 | 10.56° C | 57% | 1019.3 hPa | 0 mm | - | 0 W/m² | - |
| 1778201019 | 10.56° C | 58% | 1019.3 hPa | 0 mm | - | 0 W/m² | - |
| 1778200716 | 10.56° C | 57% | 1019.2 hPa | 0 mm | - | 0 W/m² | - |
| 1778200413 | 11.11° C | 56% | 1019.2 hPa | 0 mm | - | 2 W/m² | - |
| 1778200110 | 11.11° C | 56% | 1019 hPa | 0 mm | - | 4 W/m² | - |
| 1778199807 | 11.67° C | 55% | 1019 hPa | 0 mm | - | 6 W/m² | - |
| 1778199503 | 11.67° C | 52% | 1019 hPa | 0 mm | - | 10 W/m² | - |
| 1778199199 | 12.22° C | 46% | 1019.2 hPa | 0 mm | - | 14 W/m² | - |
| 1778198895 | 12.78° C | 47% | 1019.1 hPa | 0 mm | - | 18 W/m² | - |
| 1778198592 | 12.78° C | 48% | 1019 hPa | 0 mm | - | 22 W/m² | - |
| 1778198289 | 13.33° C | 46% | 1019.1 hPa | 0 mm | - | 25 W/m² | - |
| 1778197986 | 13.33° C | 48% | 1018.9 hPa | 0 mm | - | 29 W/m² | - |
| 1778197683 | 13.89° C | 42% | 1019.1 hPa | 0 mm | - | 33 W/m² | - |
| 1778197380 | 13.89° C | 40% | 1018.8 hPa | 0 mm | - | 37 W/m² | - |
| 1778197076 | 15° C | 38% | 1019 hPa | 0 mm | - | 43 W/m² | - |
| 1778196774 | 15° C | 36% | 1018.6 hPa | 0 mm | - | 47 W/m² | - |
| 1778196472 | 15° C | 38% | 1018.8 hPa | 0 mm | - | 57 W/m² | - |
| 1778196168 | 15° C | 37% | 1018.9 hPa | 0 mm | - | 82 W/m² | - |
| 1778195864 | 15° C | 37% | 1018.9 hPa | 0 mm | - | 95 W/m² | - |
* Rain latest hour (hover to see other rain measurements)
** Current wind speed in m/s (hover to see current wind gust speed)